Showing default

HAWK-10A, 60540

Orbit data source: Space-Track

HAWK-10A, 60540 is a payload satellite owned by HawkEye 360 (US) in SSO that was launched on Fri, 16 Aug 2024 UTC via an FALCON 9 launch vehicle from the Air Force Western Test Range (AFWTR). Payload-class satellites include a variety of spacecraft equipped with specific instruments for various scientific and technological missions. These include communications satellites like Starlink; space stations such as the ISS; scientific satellites like the Hubble; Earth observation satellites from companies like Planet Labs, Umbra, and HawkEye 360; GPS; miniature CubeSats for education and research; and military/defense satellites.

Loading next visibility...
Identifier
60540, 2024-149CA
Orbit
SSO
Country
Flag of USUS
Related business
Manufacturer
UTIAS-SFL
Mission
Operational Commercial Sigint
Bus & Motor
HAWK2G, Unknown motor
Mass
31 kg wet, 30 kg dry
Launch date (UTC)
2024-08-16 (2 years ago)
Launch vehicle
FALCON 9
Launch site
Air Force Western Test Range (AFWTR)
Object type
Payload
Rocket body
Debris
Shape & HBR
Box + 2 Pan, 1.0 m
Radar Cross Section
0.240 m², Medium (>0.1 m² and < 1m²)

Expand to show TLE details & history
Last TLE update: 12 hours ago

TLE from 12 hours ago
0 HAWK-10A
1 60540U 24149CA  26126.44482140  .00001399  00000-0  12858-3 0  9998
2 60540  97.6902 203.0757 0002914 183.2518 176.8685 14.96388739 93740
Epoch: 2026-05-06T10:40Z
TLE epoch observation values (Epoch: 2026-05-06T10:40:32.568Z)
Latitude
-0.00006°
Longitude
178.63479°
Altitude
583.14 km
Speed
7.568 km/s
True Right ascension
13h 32m 18s
True Declination
0° 00' 00"
Sunlit
Object was in full shadow at epoch
Visualization orbit readout
Latitude
Unknown
Longitude
Unknown
Altitude
Unknown
Speed
Unknown
Apparent Right ascension
Unknown
Apparent Declination
Unknown
Sunlit
N/A
Visualization observer readout
Local Sidereal Time
06:45:01
Azimuth
Unknown
Elevation
Unknown
Doppler factor
Unknown
Orbital elements
Apogee altitude
577.101 km
Perigee altitude
573.049 km
Semi-major axis
6,953.212 km
Eccentricity
0.00029
Inclination
97.6902°
RAAN
203.0757°
Arg. of periapsis
183.2518°
True anomaly
176.87032°
Mean anomaly
176.8685°
Eccentric anomaly
176.86941°
Mean motion
3.74339 °/min
Orbital period
96.17 mins
BSTAR
0.00012858
Loading maneuver chart data...
Computing Atmospheric mass density...
Loading historical data...
Loading historical data...
Loading historical data...
Loading historical data...
Loading historical data...
Loading historical data...
Loading historical data...

Documentation

Showing up to 5 results
|